Colorado Springs, CO

8:34 AM MDT on October 17, 2017 (GMT -0600)
City Of Colorado Springs Municipal

Weather History for KCOS - May, 2012

Change the Weather History Date:

Sunday, May 20, 2012

  Actual Average Record
Temperature  
Mean Temperature 56 °F 57 °F  
Max Temperature 71 °F 70 °F 88 °F (1954)
Min Temperature 41 °F 44 °F 27 °F (1915)
Degree Days  
Heating Degree Days 9 8  
Month to date heating degree days 143 217  
Since 1 July heating degree days 5256 6139  
Cooling Degree Days 0 0  
Month to date cooling degree days 12 0  
Year to date cooling degree days 14 1  
Growing Degree Days 6 (Base 50)    
Moisture  
Dew Point 39 °F    
Average Humidity 59    
Maximum Humidity 89    
Minimum Humidity 28    
Precipitation  
Precipitation 0.00 in 0.07 in 1.53 in (1900)
Month to date precipitation 0.50 1.19  
Year to date precipitation 1.72 4.27  
Snow  
Snow 0.00 in 0.00 in T in (2001)
Month to date snowfall 0.0 0.7  
Since 1 July snowfall 21.7 37.7  
Snow Depth 0.00 in    
Sea Level Pressure  
Sea Level Pressure 30.18 in    
Wind  
Wind Speed 9 mph (SE)    
Max Wind Speed 23 mph    
Max Gust Speed 30 mph    
Visibility 10 miles    
Events      
T = Trace of Precipitation, MM = Missing Value Source: NWS Daily Summary

Daily Weather History Graph

Daily Weather History Graph

Search for Another Location

Airport or City:

Trip Planner

Search our weather history database for the weather conditions in past years. The results will help you decide how hot, cold, wet, or windy it might be!

Date:

Astronomy

May. 20, 2012 Rise Set
Actual Time 5:42 AM MDT 8:09 PM MDT
Civil Twilight 5:11 AM MDT 8:39 PM MDT
Nautical Twilight 4:33 AM MDT 9:17 PM MDT
Astronomical Twilight 3:52 AM MDT 9:59 PM MDT
Moon 5:24 AM MDT (5/20) 8:10 PM MDT (5/20)
Length of Visible Light 15h 28m
Length of Day
14h 27m
Waning Crescent, 0% of the Moon is Illuminated
May 20
Waning Crescent
May 20
New
May 28
First Quarter
Jun 4
Full
Jun 11
Last Quarter

Hourly Weather History & Observations

Time (MDT) Temp. Windchill Dew Point Humidity Pressure Visibility Wind Dir Wind Speed Gust Speed Precip Events Conditions
12:54 AM 46.0 °F 43.9 °F 39.9 °F 79% 30.15 in 10.0 mi ESE 4.6 mph - N/A   Partly Cloudy
1:54 AM 44.1 °F - 39.0 °F 82% 30.21 in 10.0 mi Calm Calm - N/A   Clear
2:54 AM 45.0 °F 42.6 °F 39.9 °F 82% 30.18 in 10.0 mi ESE 4.6 mph - N/A   Clear
3:31 AM 44.6 °F 42.2 °F 39.2 °F 81% 30.26 in 10.0 mi SE 4.6 mph - N/A   Mostly Cloudy
3:54 AM 44.6 °F 42.2 °F 39.2 °F 81% 30.27 in 10.0 mi East 4.6 mph - N/A   Mostly Cloudy
4:08 AM 42.8 °F 40.1 °F 39.2 °F 87% 30.28 in 10.0 mi ENE 4.6 mph - N/A   Scattered Clouds
4:54 AM 42.1 °F 40.2 °F 37.9 °F 85% 30.23 in 10.0 mi NE 3.5 mph - N/A   Scattered Clouds
5:54 AM 43.0 °F - 39.0 °F 86% 30.24 in 10.0 mi Calm Calm - N/A   Partly Cloudy
6:54 AM 46.0 °F - 43.0 °F 89% 30.23 in 10.0 mi Calm Calm - N/A   Partly Cloudy
7:54 AM 50.0 °F - 43.0 °F 77% 30.23 in 10.0 mi SSE 8.1 mph - N/A   Partly Cloudy
8:54 AM 55.0 °F - 43.0 °F 64% 30.22 in 10.0 mi SSE 12.7 mph - N/A   Scattered Clouds
9:54 AM 57.0 °F - 42.1 °F 57% 30.20 in 10.0 mi SSW 11.5 mph - N/A   Scattered Clouds
10:54 AM 61.0 °F - 41.0 °F 48% 30.19 in 10.0 mi South 12.7 mph 17.3 mph N/A   Scattered Clouds
11:54 AM 64.0 °F - 41.0 °F 43% 30.17 in 10.0 mi SSE 12.7 mph - N/A   Partly Cloudy
12:54 PM 66.0 °F - 39.9 °F 38% 30.16 in 10.0 mi SSE 15.0 mph - N/A   Partly Cloudy
1:54 PM 69.1 °F - 36.0 °F 30% 30.13 in 10.0 mi South 16.1 mph 24.2 mph N/A   Scattered Clouds
2:54 PM 70.0 °F - 36.0 °F 29% 30.11 in 10.0 mi South 16.1 mph 25.3 mph N/A   Scattered Clouds
3:54 PM 68.0 °F - 35.1 °F 30% 30.12 in 10.0 mi SSE 18.4 mph 24.2 mph N/A   Mostly Cloudy
4:54 PM 70.0 °F - 37.0 °F 30% 30.11 in 10.0 mi SSE 13.8 mph 21.9 mph N/A   Mostly Cloudy
5:54 PM 69.1 °F - 37.0 °F 31% 30.11 in 10.0 mi SSE 13.8 mph - N/A   Mostly Cloudy
6:54 PM 66.9 °F - 36.0 °F 32% 30.11 in 10.0 mi SSE 12.7 mph - N/A   Scattered Clouds
7:54 PM 64.0 °F - 37.9 °F 38% 30.12 in 10.0 mi SE 13.8 mph - N/A   Scattered Clouds
8:54 PM 61.0 °F - 39.0 °F 44% 30.14 in 10.0 mi SE 6.9 mph - N/A   Mostly Cloudy
9:54 PM 61.0 °F - 39.0 °F 44% 30.17 in 10.0 mi SE 9.2 mph - N/A   Mostly Cloudy
10:54 PM 57.9 °F - 39.0 °F 49% 30.17 in 10.0 mi SSE 5.8 mph - N/A   Scattered Clouds
11:54 PM 55.0 °F - 39.0 °F 55% 30.17 in 10.0 mi South 4.6 mph - N/A   Partly Cloudy